Regional Weather Roundup
Issued by NWS

Home | Current Version | Previous Version | Text Only | Print | Product List | Glossary Off
Versions: 1 2 3 4 5 6 7 8 9 10 11 12 13 14 15 16 17 18 19 20 21 22 23 24 25 26 27 28 29 30 31 32 33 34 35 36 37 38 39 40 41 42 43 44 45 46 47 48 49 50

858
ASUS43 KMPX 251701
RWRMN
WEATHER ROUNDUP FOR MINNESOTA
NATIONAL WEATHER SERVICE TWIN CITIES/CHANHASSEN MN
1200 PM CDT MON JUL 25 2016


NOTE: "FAIR" INDICATES FEW OR NO CLOUDS BELOW 12,000 FEET WITH NO
SIGNIFICANT WEATHER AND/OR OBSTRUCTIONS TO VISIBILITY. N/A MEANS
CURRENT SKY AND/OR WEATHER CONDITIONS ARE NOT AVAILABLE.

MNZ060>063-068>070-251800-
   Twin Cities Metro

CITY           SKY/WX    TMP DP  RH WIND       PRES   REMARKS
TWIN CITIES    SUNNY     83  60  45 VRB7      30.06F
ST PAUL        SUNNY     81  60  48 N10       30.06F
CRYSTAL        SUNNY     82  59  45 NW10      30.05F
LAKEVILLE      SUNNY     79  64  61 NW3       30.08R
EDEN PRAIRIE   SUNNY     83  60  45 NW6       30.06F
LAKEVILLE      SUNNY     79  64  61 NW3       30.08R
SOUTH ST PAUL  SUNNY     81  58  44 NW9       30.06S
LAKE ELMO      FAIR      79  63  57 W6        30.07F
$$
MNZ001>005-007-008-013>017-022>024-027-028-251800-
   Northwest Minnesota

CITY           SKY/WX    TMP DP  RH WIND       PRES   REMARKS
BEMIDJI        SUNNY     79  61  53 W12G17    30.05S
HALLOCK        SUNNY     79  63  57 SW6       29.99S
ROSEAU         SUNNY     79  66  65 W10       30.00S
THIEF RVR FALL SUNNY     76  63  64 W8        30.04S
CROOKSTON      SUNNY     79  61  53 CALM      30.02F
FOSSTON        SUNNY     75  61  60 SW7       30.05F
DETROIT LAKES  SUNNY     77  59  53 W5        30.08S
MOORHEAD       SUNNY     81  63  54 S8        30.04F
PARK RAPIDS    SUNNY     81  58  45 W10       30.06F
MAHNOMEN       FAIR      77  60  55 SW7       30.05F
$$
MNZ006-009>011-018-025>026-251800-
   North Central Minnesota

CITY           SKY/WX    TMP DP  RH WIND       PRES   REMARKS
BAUDETTE       SUNNY     78  60  53 W10       30.00S
FLAG ISLAND    MOSUNNY   75  59  57 W7        29.97S
INTL FALLS     MOSUNNY   77  58  51 W7        30.00S
WASKISH        SUNNY     77  64  65 SW9       30.02F
BIG FORK       MOSUNNY   77  61  57 W3        30.03F
LONGVILLE      SUNNY     79  61  53 W7        30.05S
GRAND RAPIDS   MOSUNNY   77  61  57 W8        30.06F
ORR            SUNNY     75  57  53 CALM      30.00S
COOK           SUNNY     75  59  57 W7        30.03S
WALKER         FAIR      76  61  57 W8        30.05S
$$
MNZ012-019>021-037-251800-
   Northeast Minnesota

CITY           SKY/WX    TMP DP  RH WIND       PRES   REMARKS
DULUTH         MOSUNNY   77  61  57 NW10      30.04S
ELY            MOSUNNY   73  57  56 W14       30.01S
HIBBING        SUNNY     75  58  55 NW10      30.04R
EVELETH        SUNNY     77  57  50 W9        30.04S
DULUTH HARBOR  MOSUNNY   81  63  54 NW8       30.01F
TWO HARBORS    MOSUNNY   79  64  61 NW7       29.99S
SILVER BAY     MOSUNNY   79  61  53 W6        29.98S
GRAND MARAIS     N/A     66  53  63 S8        29.94R
G MARAIS ARPRT MOSUNNY   72  55  56 W9        30.00R
$$
MNZ029>031-032-039>041-046>048-054>057-064-251800-
   West Central Minnesota

CITY           SKY/WX    TMP DP  RH WIND       PRES   REMARKS
FERGUS FALLS   SUNNY     79  61  53 CALM      30.07F
WHEATON        SUNNY     82  66  57 S6        30.08S
MORRIS         SUNNY     82  63  51 S3        30.07F
ALEXANDRIA     SUNNY     80  60  50 W8        30.10S
ELBOW LAKE     FAIR      79  63  59 S6        30.08S
WADENA         SUNNY     77  63  61 W6        30.07S
GLENWOOD       SUNNY     81  63  54 W8        30.10S
APPLETON       SUNNY     82  57  42 SE3       30.08S
BENSON         SUNNY     81  61  50 W5        30.09S
ORTONVILLE     MOSUNNY   82  63  51 CALM      30.07F
MADISON        SUNNY     81  61  50 CALM      30.09S
WILLMAR        FAIR      81  63  54 SW5       30.11R
$$
MNZ033>034-036-042>043-049>051-058-059-251800-
   Central Minnesota

CITY           SKY/WX    TMP DP  RH WIND       PRES   REMARKS
ST CLOUD       SUNNY     80  61  52 NW5       30.06F
SAUK CENTRE    FAIR      79  61  53 SW6       30.09S
PAYNESVILLE    SUNNY     79  59  50 W5        30.09S
AITKIN         SUNNY     81  57  44 W5        30.04F
PINE RIVER     SUNNY     77  61  57 CALM      30.09S
BRAINERD       SUNNY     78  59  51 NW12      30.06F
STAPLES        SUNNY     79  57  47 W7        30.06F
LONG PRAIRIE   FAIR      77  59  53 W7        30.09S
LITTLE FALLS   SUNNY     79  57  47 W3        30.07S
LITCHFIELD     SUNNY     81  63  54 W5        30.09S
BUFFALO        SUNNY     80  60  51 SW6       30.08S
MAPLE LAKE     SUNNY     80  63  56 NW3       30.08S
HUTCHINSON     SUNNY     80  63  56 W3        30.10S
$$
MNZ037-044-045-052-053-251800-
   East Central Minnesota

CITY           SKY/WX    TMP DP  RH WIND       PRES   REMARKS
PRINCETON      SUNNY     82  61  47 W6        30.06F
MORA           SUNNY     77  59  53 CALM      30.07S
CAMBRIDGE      SUNNY     81  63  54 NW6       30.04F
RUSH CITY      MOSUNNY   80  63  56 W5        30.05F
MOOSE LAKE     SUNNY     77  61  57 NW6       30.03F
HINCKLEY       PTSUNNY   79  64  61 NW5       30.05F
CLOQUET        SUNNY     79  55  44 W12       30.04F
MCGREGOR       MOSUNNY   77  61  57 W7        30.05F
$$
MNZ071>073-080-081-089-090-097-098-251800-
   Southwest Minnesota

CITY           SKY/WX    TMP DP  RH WIND       PRES   REMARKS
MONTEVIDEO     SUNNY     82  66  57 W3        30.11S
GRANITE FALLS  SUNNY     81  64  57 SW3       30.11S
CANBY          SUNNY     83  57  40 SW8       30.11S
MARSHALL       SUNNY     80  63  55 CALM      30.11S
REDWOOD FALLS  SUNNY     81  59  47 CALM      30.09S
OLIVIA         SUNNY     79  63  57 W5        30.09S
WINDOM         SUNNY     82  59  44 W6        30.12S
WORTHINGTON    SUNNY     80  62  54 CALM      30.14S
JACKSON        SUNNY     79  57  47 CALM      30.14S
SLAYTON        SUNNY     81  61  51 SW6       30.14S
$$
MNZ065>067-074>077-082>085-091>093-251800-
   South Central Minnesota

CITY           SKY/WX    TMP DP  RH WIND       PRES   REMARKS
MANKATO        SUNNY     79  61  53 CALM      30.09S
NEW ULM        SUNNY     79  61  53 CALM      30.09S
ST JAMES       SUNNY     75  57  53 CALM      30.12R
FAIRMONT       SUNNY     81  59  47 N6        30.11S
GLENCOE        SUNNY     80  64  57 NW3       30.08S
FARIBAULT      SUNNY     81  63  54 NW3       30.09S
OWATONNA       SUNNY     79  61  53 CALM      30.09S
WASECA         SUNNY     77  63  61 NW3       30.11S
ALBERT LEA     SUNNY     79  63  57 W6        30.10S
$$
MNZ078>079-086>088-094>096-251800-
   Southeast Minnesota

CITY           SKY/WX    TMP DP  RH WIND       PRES   REMARKS
ROCHESTER      MOSUNNY   80  63  55 NW8       30.10S
RED WING       MOSUNNY   81  61  50 W7        30.05S
DODGE CENTER   SUNNY     81  61  50 NW8       30.10S
WINONA         SUNNY     79  61  53 NW12      30.06S
AUSTIN         SUNNY     79  63  57 W8        30.10S
PRESTON        SUNNY     77  60  56 NW6       30.09F
$$
ABBREVIATIONS USED IN REMARKS
   TC - TEMPERATURES IN CELSIUS
  WCI - WIND CHILL INDEX
   HX - HEAT INDEX
  VSB - VISIBILITY
$$




USA.gov is the U.S. government's official web portal to all federal, state and local government web resources and services.